| time (UTC) | temp C | wind direction | speed KPH | gust KPH | rain 1hr cm | rain 24hr cm | rain mn cm | humidity % | barometer mb |
| 20260508010512 | 12 | 0 | 0.0 | 0.0 | 0.00 | 0.94 | 0.94 | 96 | 1011.5 |
| 20260508010033 | 12 | 0 | 0.0 | 0.0 | 0.00 | 0.94 | 0.94 | 96 | 1011.4 |
| 20260508005511 | 12 | 0 | 0.0 | 0.0 | 0.00 | 0.94 | 0.94 | 96 | 1011.4 |
| 20260508005013 | 12 | 0 | 0.0 | 0.0 | 0.00 | 0.94 | 0.94 | 96 | 1011.2 |
| 20260508004529 | 12 | 0 | 0.0 | 0.0 | 0.00 | 0.94 | 0.94 | 96 | 1011.1 |
| 20260508004008 | 12 | 0 | 0.0 | 0.0 | 0.00 | 0.94 | 0.94 | 96 | 1011.1 |
| 20260508003511 | 12 | 0 | 0.0 | 0.0 | 0.00 | 0.94 | 0.94 | 96 | 1011.0 |
| 20260508003030 | 12 | 0 | 0.0 | 0.0 | 0.00 | 0.94 | 0.94 | 96 | 1011.0 |
| 20260508002512 | 12 | 0 | 0.0 | 0.0 | 0.00 | 0.94 | 0.94 | 96 | 1011.2 |
| 20260508002013 | 12 | 0 | 0.0 | 0.0 | 0.00 | 0.94 | 0.94 | 96 | 1011.3 |
| 20260508001556 | 12 | 0 | 0.0 | 0.0 | 0.00 | 0.94 | 0.94 | 96 | 1011.4 |
| 20260508001012 | 12 | 0 | 0.0 | 0.0 | 0.00 | 0.94 | 0.94 | 96 | 1011.2 |
| 20260508000515 | 12 | 0 | 0.0 | 0.0 | 0.00 | 0.94 | 0.94 | 96 | 1011.2 |
| 20260508000030 | 12 | 0 | 0.0 | 1.6 | 0.00 | 0.94 | 0.94 | 96 | 1011.0 |
| 20260507235512 | 12 | 0 | 0.0 | 1.6 | 0.00 | 0.94 | 0.94 | 96 | 1011.0 |
| 20260507235012 | 12 | 0 | 0.0 | 1.6 | 0.00 | 0.94 | 0.94 | 96 | 1011.0 |
| 20260507234534 | 12 | 0 | 0.0 | 3.2 | 0.00 | 0.94 | 0.94 | 96 | 1010.8 |
| 20260507234052 | 12 | 0 | 0.0 | 3.2 | 0.00 | 0.94 | 0.94 | 96 | 1010.5 |
| 20260507233512 | 12 | 0 | 0.0 | 3.2 | 0.00 | 0.94 | 0.94 | 95 | 1010.4 |
| 20260507233028 | 12 | 0 | 0.0 | 3.2 | 0.00 | 0.94 | 0.94 | 96 | 1010.2 |
| 20260507232511 | 12 | 0 | 0.0 | 3.2 | 0.00 | 0.94 | 0.94 | 96 | 1010.2 |
| 20260507232012 | 12 | 0 | 0.0 | 3.2 | 0.00 | 0.94 | 0.94 | 96 | 1010.2 |
| 20260507231535 | 12 | 0 | 0.0 | 3.2 | 0.00 | 0.94 | 0.94 | 96 | 1010.1 |
| 20260507231010 | 12 | 0 | 0.0 | 3.2 | 0.00 | 0.94 | 0.94 | 96 | 1010.3 |
| 20260507230510 | 12 | 0 | 0.0 | 3.2 | 0.00 | 0.94 | 0.94 | 96 | 1010.1 |
| 20260507230028 | 12 | 0 | 0.0 | 4.8 | 0.00 | 0.94 | 0.94 | 96 | 1010.3 |
| 20260507225515 | 12 | 0 | 0.0 | 4.8 | 0.00 | 0.94 | 0.94 | 96 | 1010.3 |
| 20260507225011 | 12 | 0 | 0.0 | 4.8 | 0.00 | 0.94 | 0.94 | 96 | 1010.1 |
| 20260507224540 | 12 | 0 | 0.0 | 4.8 | 0.00 | 0.94 | 0.94 | 96 | 1010.1 |
| 20260507224012 | 12 | 42 | 0.0 | 3.2 | 0.00 | 0.94 | 0.94 | 96 | 1010.0 |
| 20260507223517 | 12 | 224 | 0.0 | 3.2 | 0.00 | 0.94 | 0.94 | 96 | 1010.1 |
| 20260507223028 | 12 | 0 | 0.0 | 3.2 | 0.00 | 0.94 | 0.94 | 96 | 1010.1 |
| 20260507222512 | 12 | 0 | 0.0 | 4.8 | 0.00 | 0.94 | 0.94 | 96 | 1010.2 |
| 20260507222011 | 12 | 0 | 0.0 | 4.8 | 0.00 | 0.94 | 0.94 | 96 | 1010.4 |
| 20260507221530 | 12 | 0 | 0.0 | 6.4 | 0.00 | 0.94 | 0.94 | 96 | 1010.6 |
| 20260507221014 | 12 | 0 | 0.0 | 6.4 | 0.00 | 0.94 | 0.94 | 96 | 1010.4 |
| 20260507220513 | 12 | 232 | 0.0 | 8.0 | 0.00 | 0.94 | 0.94 | 96 | 1010.4 |
| 20260507220038 | 12 | 0 | 0.0 | 8.0 | 0.00 | 0.94 | 0.94 | 96 | 1010.4 |
| 20260507215511 | 12 | 0 | 0.0 | 3.2 | 0.00 | 0.94 | 0.94 | 96 | 1010.2 |
| 20260507215014 | 12 | 0 | 0.0 | 3.2 | 0.00 | 0.94 | 0.94 | 96 | 1010.3 |
| 20260507214536 | 12 | 0 | 0.0 | 6.4 | 0.00 | 0.94 | 0.94 | 96 | 1010.2 |
| 20260507214014 | 12 | 0 | 0.0 | 6.4 | 0.00 | 0.94 | 0.94 | 96 | 1010.4 |
| 20260507213513 | 12 | 0 | 0.0 | 6.4 | 0.00 | 0.94 | 0.94 | 96 | 1010.3 |
| 20260507213033 | 12 | 185 | 0.0 | 3.2 | 0.00 | 0.94 | 0.94 | 96 | 1010.0 |
| 20260507212511 | 12 | 0 | 0.0 | 3.2 | 0.00 | 0.94 | 0.94 | 96 | 1009.8 |
| 20260507212014 | 12 | 163 | 0.0 | 3.2 | 0.00 | 0.94 | 0.94 | 96 | 1009.9 |
| 20260507211529 | 12 | 0 | 0.0 | 3.2 | 0.00 | 0.94 | 0.94 | 96 | 1010.0 |
| 20260507211012 | 12 | 147 | 0.0 | 4.8 | 0.00 | 0.94 | 0.94 | 96 | 1009.8 |
| 20260507210510 | 12 | 0 | 0.0 | 4.8 | 0.00 | 0.94 | 0.94 | 96 | 1009.9 |
| 20260507210029 | 12 | 0 | 0.0 | 3.2 | 0.00 | 0.94 | 0.94 | 96 | 1009.7 |
| 20260507205514 | 12 | 276 | 0.0 | 4.8 | 0.00 | 0.94 | 0.94 | 96 | 1009.8 |
| 20260507205014 | 12 | 0 | 0.0 | 6.4 | 0.00 | 0.94 | 0.94 | 96 | 1009.5 |
| 20260507204528 | 12 | 113 | 0.0 | 6.4 | 0.00 | 0.94 | 0.94 | 96 | 1009.6 |
| 20260507204013 | 12 | 175 | 0.0 | 9.7 | 0.00 | 0.94 | 0.94 | 96 | 1009.6 |
| 20260507203512 | 12 | 227 | 0.0 | 9.7 | 0.00 | 0.94 | 0.94 | 96 | 1009.7 |
| 20260507203032 | 12 | 216 | 0.0 | 9.7 | 0.00 | 0.94 | 0.94 | 96 | 1009.7 |
| 20260507202514 | 12 | 190 | 0.0 | 8.0 | 0.00 | 0.94 | 0.94 | 96 | 1009.7 |
| 20260507202010 | 12 | 0 | 0.0 | 6.4 | 0.03 | 0.94 | 0.94 | 96 | 1009.6 |
| 20260507201531 | 12 | 207 | 0.0 | 6.4 | 0.03 | 0.94 | 0.94 | 96 | 1009.6 |
| 20260507201012 | 12 | 201 | 0.0 | 8.0 | 0.03 | 0.94 | 0.94 | 96 | 1009.5 |
| 20260507200514 | 12 | 149 | 1.6 | 8.0 | 0.03 | 0.94 | 0.94 | 96 | 1009.4 |
| 20260507200029 | 12 | 186 | 0.0 | 8.0 | 0.03 | 0.94 | 0.94 | 96 | 1009.5 |
| 20260507195512 | 12 | 0 | 0.0 | 12.9 | 0.03 | 1.07 | 0.94 | 96 | 1009.4 |
| 20260507195011 | 12 | 0 | 0.0 | 12.9 | 0.03 | 1.07 | 0.94 | 96 | 1009.4 |
| 20260507194530 | 13 | 0 | 1.6 | 6.4 | 0.03 | 1.07 | 0.94 | 96 | 1009.5 |
| 20260507194012 | 13 | 178 | 0.0 | 8.0 | 0.03 | 1.07 | 0.94 | 96 | 1009.4 |
| 20260507193509 | 13 | 0 | 1.6 | 8.0 | 0.03 | 1.07 | 0.94 | 96 | 1009.7 |
| 20260507193031 | 13 | 312 | 0.0 | 4.8 | 0.03 | 1.07 | 0.94 | 96 | 1009.8 |
| 20260507192513 | 12 | 0 | 0.0 | 4.8 | 0.03 | 1.07 | 0.94 | 96 | 1009.8 |
| 20260507192012 | 12 | 0 | 1.6 | 11.3 | 0.00 | 1.04 | 0.91 | 96 | 1009.8 |
| 20260507191530 | 12 | 0 | 1.6 | 11.3 | 0.00 | 1.04 | 0.91 | 96 | 1009.7 |
| 20260507191013 | 13 | 0 | 1.6 | 8.0 | 0.00 | 1.04 | 0.91 | 96 | 1009.6 |
| 20260507190513 | 13 | 282 | 0.0 | 6.4 | 0.00 | 1.04 | 0.91 | 96 | 1009.4 |
| 20260507190030 | 13 | 0 | 0.0 | 3.2 | 0.00 | 1.04 | 0.91 | 96 | 1008.9 |
| 20260507185516 | 13 | 0 | 0.0 | 4.8 | 0.03 | 1.09 | 0.91 | 96 | 1009.0 |
| 20260507185010 | 13 | 0 | 0.0 | 6.4 | 0.05 | 1.09 | 0.91 | 96 | 1008.8 |
| 20260507184530 | 13 | 0 | 0.0 | 6.4 | 0.08 | 1.09 | 0.91 | 96 | 1009.4 |
| 20260507184015 | 13 | 0 | 1.6 | 6.4 | 0.08 | 1.09 | 0.91 | 96 | 1009.2 |
| 20260507183512 | 13 | 0 | 1.6 | 4.8 | 0.08 | 1.09 | 0.91 | 96 | 1009.1 |
| 20260507183028 | 13 | 181 | 0.0 | 4.8 | 0.08 | 1.09 | 0.91 | 96 | 1008.8 |
| 20260507182509 | 13 | 0 | 0.0 | 6.4 | 0.08 | 1.09 | 0.91 | 96 | 1008.6 |
| 20260507182014 | 13 | 241 | 0.0 | 6.4 | 0.08 | 1.09 | 0.91 | 96 | 1008.8 |
| 20260507181530 | 14 | 209 | 0.0 | 4.8 | 0.08 | 1.09 | 0.91 | 96 | 1008.7 |
| 20260507181013 | 14 | 0 | 0.0 | 11.3 | 0.08 | 1.09 | 0.91 | 96 | 1008.5 |
| 20260507180513 | 14 | 0 | 0.0 | 11.3 | 0.10 | 1.09 | 0.91 | 96 | 1008.6 |
| 20260507180028 | 14 | 0 | 0.0 | 14.5 | 0.10 | 1.09 | 0.91 | 96 | 1008.8 |
| 20260507175512 | 14 | 0 | 1.6 | 14.5 | 0.08 | 1.07 | 0.89 | 96 | 1009.4 |
| 20260507175013 | 14 | 227 | 0.0 | 16.1 | 0.08 | 1.04 | 0.86 | 96 | 1009.8 |
| 20260507174540 | 14 | 180 | 0.0 | 16.1 | 0.05 | 1.02 | 0.84 | 96 | 1009.8 |
| 20260507174011 | 14 | 252 | 0.0 | 8.0 | 0.05 | 1.02 | 0.84 | 96 | 1009.7 |
| 20260507173512 | 15 | 0 | 0.0 | 8.0 | 0.05 | 1.02 | 0.84 | 96 | 1009.0 |
| 20260507173033 | 15 | 0 | 0.0 | 12.9 | 0.05 | 1.02 | 0.84 | 96 | 1009.0 |
| 20260507172513 | 15 | 82 | 0.0 | 14.5 | 0.05 | 1.02 | 0.84 | 96 | 1008.6 |
| 20260507172012 | 15 | 259 | 1.6 | 14.5 | 0.05 | 1.02 | 0.84 | 96 | 1008.5 |
| 20260507171535 | 15 | 0 | 0.0 | 6.4 | 0.08 | 1.02 | 0.84 | 96 | 1008.2 |
| 20260507171012 | 16 | 0 | 0.0 | 6.4 | 0.13 | 1.02 | 0.84 | 96 | 1008.0 |
| 20260507170512 | 16 | 0 | 0.0 | 3.2 | 0.13 | 0.99 | 0.81 | 96 | 1008.1 |
| 20260507170041 | 16 | 0 | 0.0 | 6.4 | 0.13 | 0.99 | 0.81 | 96 | 1008.5 |
| 20260507165510 | 17 | 0 | 0.0 | 6.4 | 0.13 | 0.99 | 0.81 | 95 | 1008.6 |
| 20260507165015 | 17 | 0 | 0.0 | 8.0 | 0.10 | 0.97 | 0.79 | 96 | 1008.4 |
| 20260507164533 | 18 | 0 | 1.6 | 8.0 | 0.10 | 0.97 | 0.79 | 96 | 1008.7 |
| 20260507164017 | 19 | 273 | 0.0 | 4.8 | 0.10 | 0.97 | 0.79 | 97 | 1008.8 |
| 20260507163510 | 19 | 0 | 0.0 | 4.8 | 0.10 | 0.97 | 0.79 | 97 | 1008.8 |
| 20260507163029 | 19 | 331 | 0.0 | 8.0 | 0.10 | 0.97 | 0.79 | 97 | 1009.1 |
| 20260507162512 | 19 | 108 | 0.0 | 8.0 | 0.13 | 0.97 | 0.79 | 97 | 1009.1 |
| 20260507162011 | 19 | 0 | 0.0 | 4.8 | 0.13 | 0.97 | 0.79 | 97 | 1009.1 |
| 20260507161528 | 19 | 355 | 0.0 | 4.8 | 0.08 | 0.91 | 0.74 | 97 | 1009.2 |
| 20260507161013 | 19 | 0 | 0.0 | 9.7 | 0.05 | 0.89 | 0.71 | 97 | 1009.2 |
| 20260507160512 | 20 | 0 | 3.2 | 9.7 | 0.05 | 0.86 | 0.69 | 97 | 1009.2 |
| 20260507160033 | 20 | 0 | 0.0 | 4.8 | 0.05 | 0.86 | 0.69 | 97 | 1009.3 |
| 20260507155510 | 20 | 0 | 0.0 | 4.8 | 0.08 | 0.86 | 0.69 | 98 | 1009.2 |
| 20260507155009 | 20 | 0 | 1.6 | 4.8 | 0.08 | 0.86 | 0.69 | 98 | 1009.2 |
| 20260507154528 | 20 | 0 | 0.0 | 1.6 | 0.10 | 0.86 | 0.69 | 98 | 1008.8 |
| 20260507154014 | 20 | 0 | 0.0 | 6.4 | 0.13 | 0.86 | 0.69 | 97 | 1008.7 |
| 20260507153512 | 20 | 0 | 1.6 | 6.4 | 0.15 | 0.86 | 0.69 | 97 | 1008.8 |
| 20260507153031 | 20 | 252 | 0.0 | 3.2 | 0.18 | 0.86 | 0.69 | 97 | 1009.1 |
| 20260507152513 | 20 | 304 | 0.0 | 4.8 | 0.20 | 0.84 | 0.66 | 97 | 1009.0 |
| 20260507152015 | 20 | 143 | 0.0 | 4.8 | 0.20 | 0.84 | 0.66 | 97 | 1009.0 |
| 20260507151530 | 20 | 0 | 0.0 | 4.8 | 0.20 | 0.84 | 0.66 | 98 | 1008.9 |
| 20260507151012 | 20 | 0 | 0.0 | 1.6 | 0.20 | 0.84 | 0.66 | 98 | 1009.1 |
| 20260507150509 | 20 | 0 | 0.0 | 1.6 | 0.18 | 0.81 | 0.64 | 98 | 1009.2 |
| 20260507150033 | 19 | 0 | 0.0 | 4.8 | 0.18 | 0.81 | 0.64 | 98 | 1009.1 |
| 20260507145512 | 19 | 274 | 0.0 | 4.8 | 0.18 | 0.79 | 0.61 | 98 | 1009.4 |
| 20260507145012 | 19 | 265 | 0.0 | 6.4 | 0.18 | 0.79 | 0.61 | 98 | 1009.5 |
| 20260507144530 | 19 | 0 | 0.0 | 6.4 | 0.15 | 0.76 | 0.58 | 97 | 1009.4 |
| 20260507144014 | 19 | 0 | 0.0 | 6.4 | 0.10 | 0.71 | 0.53 | 97 | 1009.3 |
| 20260507143511 | 19 | 0 | 0.0 | 4.8 | 0.08 | 0.69 | 0.51 | 97 | 1009.3 |
| 20260507143034 | 19 | 154 | 0.0 | 4.8 | 0.08 | 0.69 | 0.51 | 97 | 1009.3 |
| 20260507142512 | 19 | 0 | 0.0 | 4.8 | 0.03 | 0.64 | 0.46 | 98 | 1009.3 |
| 20260507142010 | 19 | 0 | 0.0 | 3.2 | 0.03 | 0.64 | 0.46 | 98 | 1009.3 |
| 20260507141531 | 19 | 0 | 0.0 | 3.2 | 0.03 | 0.64 | 0.46 | 98 | 1009.4 |
| 20260507141012 | 19 | 0 | 0.0 | 3.2 | 0.03 | 0.64 | 0.46 | 98 | 1009.4 |
| 20260507140513 | 19 | 190 | 0.0 | 4.8 | 0.03 | 0.64 | 0.46 | 98 | 1009.4 |
| 20260507140032 | 19 | 0 | 0.0 | 4.8 | 0.03 | 0.64 | 0.46 | 98 | 1009.5 |
| 20260507135512 | 19 | 140 | 0.0 | 4.8 | 0.00 | 0.61 | 0.43 | 98 | 1009.7 |
| 20260507135015 | 19 | 0 | 0.0 | 4.8 | 0.00 | 0.61 | 0.43 | 98 | 1009.9 |
| 20260507134531 | 19 | 147 | 0.0 | 3.2 | 0.00 | 0.61 | 0.43 | 98 | 1009.9 |
| 20260507134015 | 19 | 0 | 0.0 | 4.8 | 0.00 | 0.61 | 0.43 | 98 | 1009.8 |
| 20260507133513 | 19 | 0 | 0.0 | 6.4 | 0.00 | 0.61 | 0.43 | 98 | 1009.7 |
| 20260507133030 | 19 | 275 | 1.6 | 6.4 | 0.00 | 0.61 | 0.43 | 98 | 1009.6 |
| 20260507132515 | 19 | 0 | 0.0 | 4.8 | 0.00 | 0.61 | 0.43 | 98 | 1009.7 |
| 20260507132010 | 19 | 0 | 0.0 | 3.2 | 0.00 | 0.61 | 0.43 | 97 | 1009.5 |
| 20260507131535 | 19 | 0 | 0.0 | 1.6 | 0.00 | 0.61 | 0.43 | 97 | 1009.7 |
| 20260507131011 | 19 | 0 | 0.0 | 1.6 | 0.00 | 0.61 | 0.43 | 97 | 1009.7 |
| 20260507130515 | 18 | 198 | 0.0 | 1.6 | 0.00 | 0.61 | 0.43 | 97 | 1009.7 |
| 20260507130032 | 18 | 0 | 0.0 | 1.6 | 0.00 | 0.61 | 0.43 | 97 | 1009.8 |
| 20260507125512 | 18 | 224 | 0.0 | 1.6 | 0.00 | 0.61 | 0.43 | 98 | 1010.0 |
| 20260507125011 | 18 | 0 | 0.0 | 1.6 | 0.00 | 0.61 | 0.43 | 98 | 1009.7 |
| 20260507124528 | 18 | 0 | 0.0 | 3.2 | 0.00 | 0.61 | 0.43 | 98 | 1009.9 |
| 20260507124011 | 18 | 164 | 0.0 | 3.2 | 0.00 | 0.61 | 0.43 | 97 | 1009.9 |
| 20260507123511 | 18 | 0 | 0.0 | 1.6 | 0.00 | 0.61 | 0.43 | 97 | 1009.9 |
| 20260507123030 | 18 | 0 | 0.0 | 1.6 | 0.00 | 0.61 | 0.43 | 98 | 1009.9 |
| 20260507122509 | 18 | 0 | 0.0 | 3.2 | 0.00 | 0.61 | 0.43 | 97 | 1009.7 |
| 20260507122014 | 18 | 0 | 0.0 | 3.2 | 0.00 | 0.61 | 0.43 | 97 | 1009.9 |
| 20260507121528 | 18 | 293 | 0.0 | 3.2 | 0.00 | 0.61 | 0.43 | 97 | 1010.0 |
| 20260507121012 | 18 | 0 | 0.0 | 3.2 | 0.00 | 0.61 | 0.43 | 97 | 1010.2 |
| 20260507120511 | 18 | 279 | 0.0 | 3.2 | 0.00 | 0.61 | 0.43 | 97 | 1010.1 |
| 20260507120038 | 18 | 0 | 0.0 | 1.6 | 0.00 | 0.61 | 0.43 | 97 | 1010.2 |
| 20260507115511 | 18 | 0 | 0.0 | 3.2 | 0.00 | 0.61 | 0.43 | 97 | 1010.0 |
| 20260507115015 | 18 | 0 | 0.0 | 3.2 | 0.00 | 0.61 | 0.43 | 97 | 1010.3 |
| 20260507114532 | 18 | 271 | 0.0 | 3.2 | 0.00 | 0.61 | 0.43 | 97 | 1010.3 |
| 20260507114013 | 18 | 0 | 0.0 | 3.2 | 0.00 | 0.61 | 0.43 | 97 | 1010.4 |
| 20260507113513 | 18 | 0 | 0.0 | 4.8 | 0.00 | 0.61 | 0.43 | 97 | 1010.4 |
| 20260507113030 | 18 | 0 | 0.0 | 4.8 | 0.00 | 0.61 | 0.43 | 97 | 1010.4 |
| 20260507112513 | 18 | 0 | 0.0 | 4.8 | 0.00 | 0.61 | 0.43 | 97 | 1010.4 |
| 20260507112014 | 18 | 0 | 0.0 | 4.8 | 0.00 | 0.61 | 0.43 | 97 | 1010.2 |
| 20260507111530 | 18 | 0 | 0.0 | 3.2 | 0.00 | 0.61 | 0.43 | 97 | 1010.3 |
| 20260507111010 | 18 | 0 | 0.0 | 1.6 | 0.00 | 0.61 | 0.43 | 97 | 1010.3 |
| 20260507110510 | 18 | 161 | 0.0 | 1.6 | 0.00 | 0.61 | 0.43 | 97 | 1010.2 |
| 20260507110030 | 18 | 0 | 0.0 | 3.2 | 0.00 | 0.61 | 0.43 | 97 | 1010.0 |
| 20260507105512 | 18 | 0 | 0.0 | 3.2 | 0.00 | 0.61 | 0.43 | 97 | 1010.0 |
| 20260507105012 | 18 | 0 | 0.0 | 1.6 | 0.00 | 0.61 | 0.43 | 97 | 1009.8 |
| 20260507104527 | 18 | 0 | 0.0 | 1.6 | 0.00 | 0.61 | 0.43 | 97 | 1009.9 |
| 20260507104011 | 18 | 0 | 0.0 | 1.6 | 0.00 | 0.61 | 0.43 | 97 | 1009.9 |
| 20260507103513 | 18 | 0 | 0.0 | 1.6 | 0.00 | 0.61 | 0.43 | 97 | 1010.0 |
| 20260507103033 | 18 | 119 | 0.0 | 1.6 | 0.00 | 0.61 | 0.43 | 97 | 1009.8 |
| 20260507102515 | 18 | 0 | 0.0 | 0.0 | 0.00 | 0.61 | 0.43 | 97 | 1009.8 |
| 20260507102010 | 18 | 0 | 0.0 | 1.6 | 0.03 | 0.61 | 0.43 | 97 | 1009.8 |
| 20260507101531 | 18 | 0 | 0.0 | 1.6 | 0.03 | 0.61 | 0.43 | 97 | 1009.9 |
| 20260507101012 | 18 | 0 | 0.0 | 1.6 | 0.03 | 0.61 | 0.43 | 97 | 1009.8 |
| 20260507100512 | 18 | 0 | 0.0 | 1.6 | 0.03 | 0.61 | 0.43 | 97 | 1009.9 |
| 20260507100035 | 18 | 0 | 0.0 | 1.6 | 0.03 | 0.61 | 0.43 | 97 | 1009.9 |
| 20260507095515 | 18 | 0 | 0.0 | 1.6 | 0.03 | 0.61 | 0.43 | 97 | 1009.9 |
| 20260507095009 | 18 | 0 | 0.0 | 1.6 | 0.03 | 0.61 | 0.43 | 97 | 1009.9 |
| 20260507094528 | 18 | 0 | 0.0 | 1.6 | 0.03 | 0.61 | 0.43 | 97 | 1009.9 |
| 20260507094012 | 18 | 0 | 0.0 | 1.6 | 0.03 | 0.61 | 0.43 | 97 | 1009.9 |
| 20260507093512 | 18 | 0 | 0.0 | 3.2 | 0.03 | 0.61 | 0.43 | 97 | 1009.9 |
| 20260507093030 | 18 | 0 | 0.0 | 3.2 | 0.03 | 0.61 | 0.43 | 97 | 1009.9 |
| 20260507092513 | 18 | 0 | 0.0 | 3.2 | 0.03 | 0.61 | 0.43 | 97 | 1009.9 |
| 20260507092009 | 18 | 0 | 0.0 | 1.6 | 0.00 | 0.58 | 0.41 | 97 | 1009.9 |
| 20260507091531 | 18 | 0 | 0.0 | 1.6 | 0.00 | 0.58 | 0.41 | 96 | 1010.0 |
| 20260507091011 | 18 | 0 | 0.0 | 3.2 | 0.00 | 0.58 | 0.41 | 96 | 1010.1 |
| 20260507090515 | 18 | 0 | 0.0 | 3.2 | 0.00 | 0.58 | 0.41 | 96 | 1010.2 |
| 20260507090036 | 18 | 176 | 0.0 | 3.2 | 0.00 | 0.58 | 0.41 | 96 | 1010.0 |
| 20260507085512 | 18 | 0 | 0.0 | 4.8 | 0.00 | 0.58 | 0.41 | 96 | 1010.0 |
| 20260507085012 | 18 | 0 | 0.0 | 4.8 | 0.00 | 0.58 | 0.41 | 96 | 1010.2 |
| 20260507084528 | 18 | 0 | 0.0 | 1.6 | 0.00 | 0.58 | 0.41 | 96 | 1010.0 |
| 20260507084011 | 18 | 0 | 0.0 | 3.2 | 0.00 | 0.58 | 0.41 | 96 | 1010.2 |
| 20260507083510 | 18 | 0 | 0.0 | 3.2 | 0.00 | 0.58 | 0.41 | 96 | 1010.3 |
| 20260507083029 | 18 | 161 | 0.0 | 1.6 | 0.00 | 0.58 | 0.41 | 96 | 1010.6 |
| 20260507082509 | 18 | 0 | 0.0 | 3.2 | 0.00 | 0.58 | 0.41 | 96 | 1010.7 |
| 20260507082013 | 18 | 0 | 0.0 | 3.2 | 0.00 | 0.58 | 0.41 | 96 | 1010.7 |
| 20260507081541 | 18 | 0 | 0.0 | 1.6 | 0.00 | 0.58 | 0.41 | 96 | 1010.5 |
| 20260507081012 | 18 | 0 | 0.0 | 0.0 | 0.00 | 0.58 | 0.41 | 96 | 1010.3 |
| 20260507080512 | 18 | 0 | 0.0 | 0.0 | 0.00 | 0.58 | 0.41 | 96 | 1010.3 |
| 20260507080029 | 18 | 0 | 0.0 | 0.0 | 0.00 | 0.58 | 0.41 | 96 | 1010.1 |
| 20260507075512 | 18 | 0 | 0.0 | 1.6 | 0.00 | 0.58 | 0.41 | 96 | 1010.4 |
| 20260507075011 | 18 | 0 | 0.0 | 1.6 | 0.00 | 0.58 | 0.41 | 96 | 1010.4 |
| 20260507074546 | 18 | 0 | 0.0 | 0.0 | 0.00 | 0.58 | 0.41 | 96 | 1010.7 |
| 20260507074011 | 18 | 0 | 0.0 | 0.0 | 0.00 | 0.58 | 0.41 | 96 | 1010.9 |
| 20260507073514 | 18 | 0 | 0.0 | 0.0 | 0.00 | 0.58 | 0.41 | 96 | 1010.8 |
| 20260507073030 | 18 | 0 | 0.0 | 1.6 | 0.00 | 0.58 | 0.41 | 96 | 1011.0 |
| 20260507072510 | 18 | 0 | 0.0 | 1.6 | 0.00 | 0.58 | 0.41 | 96 | 1010.8 |
| 20260507072010 | 18 | 0 | 0.0 | 0.0 | 0.00 | 0.58 | 0.41 | 95 | 1010.8 |
| 20260507071530 | 18 | 0 | 0.0 | 0.0 | 0.00 | 0.58 | 0.41 | 95 | 1010.6 |
| 20260507071012 | 18 | 0 | 0.0 | 0.0 | 0.00 | 0.58 | 0.41 | 95 | 1010.9 |
| 20260507070512 | 18 | 0 | 0.0 | 0.0 | 0.00 | 0.58 | 0.41 | 95 | 1010.7 |
| 20260507070028 | 18 | 0 | 0.0 | 0.0 | 0.00 | 0.58 | 0.41 | 95 | 1010.5 |
| 20260507065512 | 18 | 0 | 0.0 | 0.0 | 0.00 | 0.58 | 0.41 | 95 | 1010.9 |
| 20260507065013 | 18 | 0 | 0.0 | 0.0 | 0.00 | 0.58 | 0.41 | 95 | 1011.2 |
| 20260507064530 | 18 | 0 | 0.0 | 1.6 | 0.00 | 0.58 | 0.41 | 95 | 1011.5 |
| 20260507064010 | 18 | 0 | 0.0 | 3.2 | 0.00 | 0.58 | 0.41 | 95 | 1011.5 |
| 20260507063514 | 18 | 0 | 0.0 | 3.2 | 0.03 | 0.58 | 0.41 | 95 | 1011.7 |
| 20260507063032 | 18 | 259 | 0.0 | 3.2 | 0.05 | 0.58 | 0.41 | 95 | 1011.6 |
| 20260507062510 | 18 | 0 | 0.0 | 1.6 | 0.08 | 0.58 | 0.41 | 94 | 1011.2 |
| 20260507062012 | 18 | 0 | 0.0 | 1.6 | 0.13 | 0.58 | 0.41 | 94 | 1011.0 |
| 20260507061533 | 18 | 0 | 0.0 | 1.6 | 0.18 | 0.58 | 0.41 | 94 | 1011.4 |
| 20260507061010 | 18 | 0 | 0.0 | 1.6 | 0.18 | 0.58 | 0.41 | 94 | 1011.9 |
| 20260507060509 | 18 | 0 | 0.0 | 1.6 | 0.23 | 0.58 | 0.41 | 94 | 1011.6 |
| 20260507060030 | 18 | 0 | 0.0 | 1.6 | 0.25 | 0.58 | 0.41 | 94 | 1011.5 |
| 20260507055510 | 18 | 0 | 0.0 | 8.0 | 0.28 | 0.58 | 0.41 | 94 | 1011.6 |
| 20260507055016 | 18 | 0 | 0.0 | 8.0 | 0.30 | 0.58 | 0.41 | 93 | 1011.5 |
| 20260507054527 | 18 | 0 | 1.6 | 4.8 | 0.33 | 0.58 | 0.41 | 93 | 1011.9 |
| 20260507054009 | 18 | 0 | 0.0 | 1.6 | 0.36 | 0.58 | 0.41 | 93 | 1011.2 |
| 20260507053513 | 18 | 0 | 0.0 | 1.6 | 0.36 | 0.56 | 0.38 | 93 | 1011.2 |
| 20260507053030 | 18 | 0 | 0.0 | 3.2 | 0.36 | 0.53 | 0.36 | 93 | 1011.1 |
| 20260507052512 | 19 | 0 | 0.0 | 6.4 | 0.30 | 0.48 | 0.30 | 92 | 1011.6 |
| 20260507052011 | 19 | 0 | 0.0 | 6.4 | 0.25 | 0.43 | 0.25 | 92 | 1011.9 |
| 20260507051530 | 19 | 0 | 0.0 | 4.8 | 0.23 | 0.41 | 0.23 | 92 | 1012.0 |
| 20260507051017 | 19 | 228 | 0.0 | 3.2 | 0.20 | 0.38 | 0.20 | 91 | 1011.3 |
| 20260507050515 | 19 | 0 | 0.0 | 3.2 | 0.18 | 0.36 | 0.18 | 90 | 1011.1 |
| 20260507050032 | 20 | 0 | 0.0 | 3.2 | 0.15 | 0.33 | 0.15 | 90 | 1011.5 |
| 20260507045511 | 20 | 136 | 0.0 | 11.3 | 0.13 | 0.30 | 0.13 | 89 | 1011.8 |
| 20260507045010 | 20 | 0 | 1.6 | 12.9 | 0.10 | 0.28 | 0.10 | 88 | 1012.5 |
| 20260507044529 | 20 | 340 | 3.2 | 12.9 | 0.08 | 0.25 | 0.08 | 88 | 1012.7 |
| 20260507044012 | 20 | 67 | 3.2 | 12.9 | 0.05 | 0.23 | 0.05 | 87 | 1012.9 |
| 20260507043513 | 20 | 0 | 3.2 | 11.3 | 0.00 | 0.18 | 0.00 | 87 | 1012.9 |
| 20260507043032 | 20 | 0 | 1.6 | 9.7 | 0.00 | 0.18 | 0.00 | 87 | 1013.0 |
| 20260507042514 | 20 | 0 | 1.6 | 6.4 | 0.00 | 0.18 | 0.00 | 87 | 1013.1 |
| 20260507042009 | 20 | 273 | 0.0 | 4.8 | 0.00 | 0.18 | 0.00 | 87 | 1013.1 |
| 20260507041530 | 20 | 0 | 0.0 | 4.8 | 0.00 | 0.18 | 0.00 | 87 | 1013.0 |
| 20260507041013 | 20 | 342 | 0.0 | 4.8 | 0.00 | 0.18 | 0.00 | 87 | 1012.6 |
| 20260507040513 | 20 | 0 | 0.0 | 1.6 | 0.00 | 0.18 | 0.00 | 86 | 1012.5 |
| 20260507040029 | 20 | 0 | 0.0 | 1.6 | 0.00 | 0.18 | 0.00 | 85 | 1012.2 |
| 20260507035512 | 21 | 0 | 0.0 | 3.2 | 0.00 | 0.18 | 0.18 | 85 | 1012.1 |
| 20260507035011 | 21 | 0 | 0.0 | 3.2 | 0.00 | 0.18 | 0.18 | 84 | 1011.8 |
| 20260507034530 | 21 | 165 | 0.0 | 3.2 | 0.00 | 0.18 | 0.18 | 83 | 1011.7 |
| 20260507034010 | 21 | 0 | 0.0 | 4.8 | 0.00 | 0.18 | 0.18 | 83 | 1011.9 |
| 20260507033511 | 21 | 0 | 0.0 | 4.8 | 0.00 | 0.18 | 0.18 | 83 | 1011.8 |
| 20260507033028 | 21 | 0 | 0.0 | 1.6 | 0.00 | 0.18 | 0.18 | 83 | 1012.2 |
| 20260507032510 | 21 | 0 | 0.0 | 3.2 | 0.00 | 0.18 | 0.18 | 83 | 1012.1 |
| 20260507032013 | 21 | 0 | 0.0 | 3.2 | 0.00 | 0.18 | 0.18 | 83 | 1012.1 |
| 20260507031528 | 21 | 0 | 0.0 | 3.2 | 0.00 | 0.18 | 0.18 | 84 | 1012.0 |
| 20260507031010 | 21 | 0 | 0.0 | 3.2 | 0.00 | 0.18 | 0.18 | 85 | 1012.0 |
| 20260507030513 | 20 | 0 | 0.0 | 3.2 | 0.00 | 0.18 | 0.18 | 85 | 1011.7 |
| 20260507030030 | 20 | 0 | 0.0 | 3.2 | 0.00 | 0.18 | 0.18 | 85 | 1011.8 |
| 20260507025511 | 20 | 0 | 0.0 | 3.2 | 0.00 | 0.18 | 0.18 | 86 | 1011.8 |
| 20260507025010 | 20 | 0 | 0.0 | 1.6 | 0.00 | 0.18 | 0.18 | 86 | 1011.7 |
| 20260507024534 | 20 | 0 | 0.0 | 1.6 | 0.00 | 0.18 | 0.18 | 87 | 1011.7 |
| 20260507024012 | 20 | 0 | 0.0 | 1.6 | 0.00 | 0.18 | 0.18 | 87 | 1011.5 |
| 20260507023511 | 20 | 0 | 0.0 | 1.6 | 0.00 | 0.18 | 0.18 | 88 | 1011.4 |
| 20260507023032 | 20 | 0 | 0.0 | 1.6 | 0.00 | 0.18 | 0.18 | 88 | 1011.5 |
| 20260507022511 | 20 | 0 | 0.0 | 0.0 | 0.00 | 0.18 | 0.18 | 88 | 1011.4 |
| 20260507022012 | 20 | 0 | 0.0 | 0.0 | 0.00 | 0.18 | 0.18 | 88 | 1011.3 |
| 20260507021529 | 20 | 0 | 0.0 | 0.0 | 0.00 | 0.18 | 0.18 | 89 | 1011.5 |
| 20260507021011 | 20 | 0 | 0.0 | 0.0 | 0.00 | 0.18 | 0.18 | 89 | 1011.4 |
| 20260507020516 | 20 | 0 | 0.0 | 0.0 | 0.00 | 0.18 | 0.18 | 89 | 1011.4 |
| 20260507020031 | 20 | 0 | 0.0 | 0.0 | 0.00 | 0.18 | 0.18 | 89 | 1011.6 |
| 20260507015510 | 20 | 0 | 0.0 | 0.0 | 0.00 | 0.18 | 0.18 | 89 | 1011.7 |
| 20260507015010 | 20 | 0 | 0.0 | 0.0 | 0.00 | 0.18 | 0.18 | 89 | 1011.5 |
| 20260507014542 | 20 | 0 | 0.0 | 0.0 | 0.00 | 0.18 | 0.18 | 88 | 1011.3 |
| 20260507014012 | 20 | 0 | 0.0 | 0.0 | 0.00 | 0.18 | 0.18 | 88 | 1011.5 |
| 20260507013509 | 20 | 0 | 0.0 | 0.0 | 0.00 | 0.18 | 0.18 | 88 | 1011.6 |
| 20260507013028 | 20 | 0 | 0.0 | 0.0 | 0.00 | 0.18 | 0.18 | 88 | 1011.7 |
| 20260507012513 | 20 | 0 | 0.0 | 0.0 | 0.00 | 0.18 | 0.18 | 88 | 1011.8 |
| 20260507012012 | 20 | 0 | 0.0 | 0.0 | 0.00 | 0.18 | 0.18 | 88 | 1011.5 |
| 20260507011533 | 20 | 0 | 0.0 | 0.0 | 0.00 | 0.18 | 0.18 | 88 | 1011.5 |
| 20260507011013 | 20 | 0 | 0.0 | 0.0 | 0.00 | 0.18 | 0.18 | 88 | 1011.6 |